SWR9EB LSZH-LEPA

Flight info

Callsign SWR9EB
Flight time 1h 35m
Altitude 35000
Route VEBIT T50 ROTOS Z669 ULMES DCT VADAR DCT GEVEA DCT INCUS DCT BALSI DCT RETNO DCT TUPOX DCT MTG DCT DIVKO DCT VATIR DCT PIVUS DCT BODEQ DCT VERSO L129 LUNIK
Aircraft A321/M-SDE3FGHIRWY/LB1

Departure

Time 2026-05-06 14:56
Airport Zürich Airport (LSZH)

Arrival

Time 2026-05-06 16:31
Airport Palma de Mallorca Airport (LEPA)
Time Latitude Longitude Altitude Speed Heading
2026-05-06 14:37 47.45436 8.55635 1412 ft 0 kts 186°
2026-05-06 14:48 47.45445 8.55636 1407 ft 4 kts 189°
2026-05-06 14:48 47.45471 8.55643 1410 ft 4 kts 178°
2026-05-06 14:49 47.45492 8.55636 1411 ft 4 kts 155°
2026-05-06 14:49 47.45513 8.55615 1415 ft 4 kts 121°
2026-05-06 14:49 47.45520 8.55589 1413 ft 0 kts 96°
2026-05-06 14:51 47.45520 8.55590 1413 ft 1 kts 96°
2026-05-06 14:51 47.45515 8.55649 1411 ft 6 kts 96°
2026-05-06 14:51 47.45512 8.55704 1407 ft 10 kts 96°
2026-05-06 14:51 47.45501 8.55849 1413 ft 15 kts 96°
2026-05-06 14:52 47.45493 8.55974 1409 ft 9 kts 96°
2026-05-06 14:52 47.45483 8.56099 1407 ft 16 kts 96°
2026-05-06 14:52 47.45501 8.56247 1410 ft 12 kts 56°
2026-05-06 14:52 47.45538 8.56321 1415 ft 9 kts 51°
2026-05-06 14:53 47.45593 8.56436 1417 ft 18 kts 68°
2026-05-06 14:53 47.45587 8.56594 1419 ft 12 kts 96°
2026-05-06 14:53 47.45579 8.56710 1423 ft 13 kts 96°
2026-05-06 14:53 47.45568 8.56853 1420 ft 14 kts 96°
2026-05-06 14:54 47.45564 8.56971 1421 ft 9 kts 79°
2026-05-06 14:54 47.45576 8.56998 1422 ft 0 kts 50°
2026-05-06 14:55 47.45580 8.57002 1422 ft 4 kts 37°
2026-05-06 14:55 47.45645 8.56995 1425 ft 14 kts 326°
2026-05-06 14:56 47.45678 8.56794 1421 ft 33 kts 276°
2026-05-06 14:56 47.45725 8.56094 1412 ft 101 kts 276°
2026-05-06 14:56 47.45822 8.54786 1423 ft 150 kts 275°
2026-05-06 14:56 47.45924 8.53258 2052 ft 148 kts 274°
2026-05-06 14:57 47.46031 8.51729 2749 ft 150 kts 274°
2026-05-06 14:57 47.46144 8.50137 3133 ft 165 kts 273°
2026-05-06 14:57 47.46218 8.48344 3322 ft 184 kts 262°
2026-05-06 14:57 47.45559 8.46665 3453 ft 206 kts 221°
2026-05-06 14:58 47.44330 8.45320 3683 ft 234 kts 225°
2026-05-06 14:58 47.43192 8.43505 4463 ft 246 kts 232°
2026-05-06 14:58 47.42147 8.41482 5461 ft 249 kts 235°
2026-05-06 14:58 47.41143 8.39376 6524 ft 252 kts 236°
2026-05-06 14:59 47.40143 8.37228 7550 ft 255 kts 236°
2026-05-06 14:59 47.39136 8.35056 8486 ft 258 kts 237°
2026-05-06 14:59 47.38238 8.32753 9359 ft 260 kts 241°
2026-05-06 14:59 47.37387 8.30372 10114 ft 265 kts 242°
2026-05-06 15:00 47.36511 8.27864 10421 ft 286 kts 242°
2026-05-06 15:00 47.35563 8.25148 10609 ft 309 kts 242°
2026-05-06 15:00 47.34542 8.22231 10817 ft 328 kts 242°
2026-05-06 15:00 47.33477 8.19205 11375 ft 336 kts 242°
2026-05-06 15:01 47.32759 8.17179 11840 ft 339 kts 242°
2026-05-06 15:01 47.31297 8.13066 12756 ft 345 kts 242°
2026-05-06 15:01 47.30544 8.10948 13224 ft 348 kts 241°
2026-05-06 15:01 47.29042 8.06733 14096 ft 353 kts 241°
2026-05-06 15:02 47.28269 8.04567 14520 ft 356 kts 241°
2026-05-06 15:02 47.26762 8.00245 15333 ft 361 kts 245°
2026-05-06 15:02 47.25803 7.96819 15939 ft 364 kts 246°
2026-05-06 15:02 47.25153 7.94476 16362 ft 367 kts 246°
2026-05-06 15:03 47.24181 7.90989 16981 ft 370 kts 246°
2026-05-06 15:03 47.23196 7.87469 17548 ft 374 kts 245°
2026-05-06 15:03 47.22197 7.83918 18132 ft 377 kts 245°
2026-05-06 15:03 47.21186 7.80335 18620 ft 381 kts 245°
2026-05-06 15:04 47.20168 7.76720 19124 ft 384 kts 245°
2026-05-06 15:04 47.19060 7.73130 19611 ft 386 kts 239°
2026-05-06 15:04 47.17569 7.69849 20083 ft 387 kts 230°
2026-05-06 15:04 47.15889 7.66748 20583 ft 390 kts 230°
2026-05-06 15:05 47.14211 7.63654 21053 ft 393 kts 230°
2026-05-06 15:05 47.12480 7.60458 21529 ft 396 kts 230°
2026-05-06 15:05 47.10763 7.57282 22009 ft 400 kts 230°
2026-05-06 15:05 47.09053 7.54116 22473 ft 403 kts 230°
2026-05-06 15:06 47.07305 7.50884 22936 ft 406 kts 230°
2026-05-06 15:06 47.05541 7.47632 23419 ft 409 kts 230°
2026-05-06 15:06 47.03763 7.44360 23816 ft 411 kts 230°
2026-05-06 15:06 47.01974 7.41074 24239 ft 413 kts 229°
2026-05-06 15:07 47.00178 7.37788 24688 ft 414 kts 230°
2026-05-06 15:07 46.98371 7.34494 25088 ft 416 kts 230°
2026-05-06 15:07 46.96555 7.31190 25502 ft 417 kts 230°
2026-05-06 15:07 46.94734 7.27875 25913 ft 418 kts 230°
2026-05-06 15:08 46.92910 7.24553 26351 ft 419 kts 229°
2026-05-06 15:08 46.91091 7.21235 26776 ft 419 kts 229°
2026-05-06 15:08 46.89267 7.17905 27173 ft 420 kts 229°
2026-05-06 15:08 46.87440 7.14567 27569 ft 421 kts 229°
2026-05-06 15:09 46.85607 7.11225 27961 ft 422 kts 229°
2026-05-06 15:09 46.83765 7.07875 28332 ft 423 kts 229°
2026-05-06 15:09 46.81939 7.04568 28701 ft 424 kts 229°
2026-05-06 15:09 46.80083 7.01217 29099 ft 424 kts 229°
2026-05-06 15:10 46.78233 6.97875 29621 ft 421 kts 229°
2026-05-06 15:10 46.76400 6.94562 30103 ft 418 kts 229°
2026-05-06 15:10 46.74580 6.91274 30566 ft 415 kts 229°
2026-05-06 15:10 46.72761 6.87996 30819 ft 418 kts 230°
2026-05-06 15:11 46.70925 6.84698 31067 ft 420 kts 229°
2026-05-06 15:11 46.69084 6.81394 31382 ft 420 kts 229°
2026-05-06 15:11 46.67243 6.78095 31746 ft 419 kts 229°
2026-05-06 15:11 46.65397 6.74813 32118 ft 418 kts 228°
2026-05-06 15:12 46.63509 6.71664 32488 ft 417 kts 226°
2026-05-06 15:12 46.61541 6.68575 32866 ft 416 kts 225°
2026-05-06 15:12 46.59542 6.65542 33250 ft 415 kts 225°
2026-05-06 15:12 46.57538 6.62533 33653 ft 414 kts 225°
2026-05-06 15:13 46.55543 6.59527 34020 ft 413 kts 225°
2026-05-06 15:13 46.53562 6.56512 34319 ft 412 kts 225°
2026-05-06 15:13 46.51593 6.53482 34590 ft 413 kts 225°
2026-05-06 15:13 46.49629 6.50441 34831 ft 414 kts 225°
2026-05-06 15:14 46.47662 6.47394 34904 ft 413 kts 225°
2026-05-06 15:14 46.43736 6.41321 34931 ft 414 kts 226°
2026-05-06 15:15 46.39765 6.35209 34941 ft 417 kts 226°
2026-05-06 15:15 46.35778 6.29098 34941 ft 416 kts 226°
2026-05-06 15:16 46.31799 6.23021 34944 ft 416 kts 226°
2026-05-06 15:16 46.27750 6.17052 34950 ft 415 kts 219°
2026-05-06 15:17 46.22743 6.12975 34950 ft 416 kts 199°
2026-05-06 15:17 46.17045 6.11357 34944 ft 418 kts 191°
2026-05-06 15:18 46.11263 6.10076 34951 ft 429 kts 191°
2026-05-06 15:18 46.05341 6.08769 34948 ft 431 kts 191°
2026-05-06 15:19 45.99405 6.07454 34936 ft 431 kts 191°
2026-05-06 15:19 45.93499 6.06149 34949 ft 428 kts 191°
2026-05-06 15:20 45.87609 6.04855 34949 ft 428 kts 191°
2026-05-06 15:20 45.81716 6.03549 34948 ft 428 kts 191°
2026-05-06 15:21 45.75837 6.02251 34943 ft 428 kts 192°
2026-05-06 15:21 45.69995 6.00963 34928 ft 427 kts 192°
2026-05-06 15:22 45.64119 5.99671 34927 ft 427 kts 192°
2026-05-06 15:22 45.58243 5.98377 34924 ft 427 kts 192°
2026-05-06 15:23 45.52366 5.97092 34934 ft 427 kts 192°
2026-05-06 15:23 45.46504 5.95777 34936 ft 425 kts 193°
2026-05-06 15:24 45.40722 5.94055 34931 ft 424 kts 196°
2026-05-06 15:24 45.34989 5.92135 34939 ft 424 kts 196°
2026-05-06 15:25 45.29238 5.90271 34948 ft 424 kts 195°
2026-05-06 15:25 45.23475 5.88481 34949 ft 424 kts 195°
2026-05-06 15:26 45.17711 5.86714 34943 ft 424 kts 195°
2026-05-06 15:26 45.11951 5.84942 34947 ft 423 kts 195°
2026-05-06 15:27 45.06196 5.83162 34945 ft 423 kts 195°
2026-05-06 15:27 45.00451 5.81383 34928 ft 422 kts 196°
2026-05-06 15:28 44.94706 5.79609 34939 ft 422 kts 196°
2026-05-06 15:28 44.89004 5.77854 34939 ft 422 kts 196°
2026-05-06 15:29 44.83263 5.76097 34918 ft 421 kts 196°
2026-05-06 15:29 44.77543 5.74350 34929 ft 420 kts 196°
2026-05-06 15:30 44.71833 5.72609 34934 ft 420 kts 196°
2026-05-06 15:30 44.66122 5.70877 34956 ft 420 kts 196°
2026-05-06 15:31 44.60405 5.69141 34925 ft 421 kts 196°
2026-05-06 15:31 44.54677 5.67401 34914 ft 422 kts 196°
2026-05-06 15:32 44.46068 5.64780 34900 ft 422 kts 196°
2026-05-06 15:32 44.40352 5.63061 34916 ft 422 kts 196°
2026-05-06 15:33 44.34795 5.60601 34915 ft 417 kts 205°
2026-05-06 15:33 44.29389 5.57629 34914 ft 417 kts 205°
2026-05-06 15:34 44.23984 5.54678 34906 ft 417 kts 205°
2026-05-06 15:34 44.18588 5.51731 34914 ft 416 kts 205°
2026-05-06 15:35 44.13202 5.48789 34912 ft 416 kts 205°
2026-05-06 15:35 44.07855 5.45887 34892 ft 415 kts 205°
2026-05-06 15:36 44.02485 5.42965 34903 ft 414 kts 205°
2026-05-06 15:36 43.97119 5.40049 34912 ft 414 kts 205°
2026-05-06 15:37 43.91747 5.37144 34912 ft 414 kts 205°
2026-05-06 15:37 43.86379 5.34243 34904 ft 414 kts 205°
2026-05-06 15:38 43.81013 5.31356 34936 ft 414 kts 205°
2026-05-06 15:38 43.75645 5.28464 34927 ft 414 kts 205°
2026-05-06 15:39 43.70268 5.25576 34903 ft 414 kts 205°
2026-05-06 15:39 43.64905 5.22699 34915 ft 414 kts 205°
2026-05-06 15:40 43.59531 5.19824 34919 ft 414 kts 205°
2026-05-06 15:40 43.54191 5.16972 34926 ft 414 kts 205°
2026-05-06 15:41 43.48817 5.14107 34915 ft 414 kts 205°
2026-05-06 15:41 43.43453 5.11246 34926 ft 413 kts 205°
2026-05-06 15:42 43.38176 5.08175 34926 ft 409 kts 213°
2026-05-06 15:42 43.33485 5.03812 34929 ft 407 kts 217°
2026-05-06 15:43 43.28812 4.99419 34919 ft 407 kts 217°
2026-05-06 15:43 43.24141 4.95036 34956 ft 406 kts 217°
2026-05-06 15:44 43.19511 4.90684 34947 ft 407 kts 217°
2026-05-06 15:44 43.14835 4.86298 34946 ft 407 kts 217°
2026-05-06 15:45 43.10162 4.81931 34927 ft 407 kts 217°
2026-05-06 15:45 43.05531 4.77646 34938 ft 407 kts 214°
2026-05-06 15:46 43.00576 4.73858 34941 ft 408 kts 212°
2026-05-06 15:46 42.95646 4.70126 34944 ft 408 kts 212°
2026-05-06 15:47 42.90683 4.66381 34933 ft 407 kts 212°
2026-05-06 15:47 42.85733 4.62634 34951 ft 407 kts 212°
2026-05-06 15:48 42.80793 4.58904 34941 ft 406 kts 212°
2026-05-06 15:48 42.75845 4.55176 34955 ft 407 kts 212°
2026-05-06 15:49 42.70886 4.51453 34948 ft 407 kts 212°
2026-05-06 15:49 42.65927 4.47732 34945 ft 408 kts 212°
2026-05-06 15:50 42.60958 4.44005 34954 ft 408 kts 212°
2026-05-06 15:50 42.55985 4.40286 34955 ft 408 kts 212°
2026-05-06 15:51 42.51011 4.36575 34930 ft 408 kts 212°
2026-05-06 15:51 42.46034 4.32885 34941 ft 407 kts 212°
2026-05-06 15:52 42.41070 4.29207 34961 ft 406 kts 212°
2026-05-06 15:52 42.36958 4.26149 34958 ft 406 kts 212°
2026-05-06 15:53 42.32008 4.22477 34940 ft 406 kts 212°
2026-05-06 15:53 42.26258 4.18225 34965 ft 405 kts 212°
2026-05-06 15:54 42.22116 4.15163 34960 ft 405 kts 212°
2026-05-06 15:54 42.17175 4.11523 34954 ft 405 kts 212°
2026-05-06 15:55 42.12225 4.07885 34915 ft 405 kts 212°
2026-05-06 15:55 42.07271 4.04243 34935 ft 405 kts 212°
2026-05-06 15:56 42.02319 4.00615 34942 ft 405 kts 212°
2026-05-06 15:56 41.97392 3.97010 34946 ft 405 kts 212°
2026-05-06 15:57 41.92346 3.93624 34947 ft 410 kts 204°
2026-05-06 15:57 41.86701 3.92034 34927 ft 416 kts 195°
2026-05-06 15:58 41.80993 3.90731 34934 ft 416 kts 195°
2026-05-06 15:58 41.75290 3.89417 34937 ft 416 kts 196°
2026-05-06 15:59 41.69589 3.88104 34920 ft 415 kts 196°
2026-05-06 15:59 41.63891 3.86790 34928 ft 415 kts 196°
2026-05-06 16:00 41.58191 3.85487 34934 ft 416 kts 196°
2026-05-06 16:00 41.52490 3.84181 34939 ft 416 kts 196°
2026-05-06 16:01 41.46789 3.82872 34911 ft 416 kts 196°
2026-05-06 16:01 41.41113 3.81577 34923 ft 416 kts 196°
2026-05-06 16:02 41.35401 3.80270 34943 ft 417 kts 196°
2026-05-06 16:02 41.29681 3.78955 34941 ft 417 kts 196°
2026-05-06 16:03 41.23948 3.77655 34927 ft 418 kts 196°
2026-05-06 16:03 41.18218 3.76362 34934 ft 418 kts 196°
2026-05-06 16:04 41.12695 3.74364 34936 ft 408 kts 207°
2026-05-06 16:04 41.07395 3.71616 34939 ft 409 kts 207°
2026-05-06 16:05 41.02099 3.68886 34924 ft 408 kts 207°
2026-05-06 16:05 40.96813 3.66169 34931 ft 408 kts 207°
2026-05-06 16:06 40.91525 3.63453 34939 ft 407 kts 207°
2026-05-06 16:06 40.86231 3.60748 34934 ft 407 kts 207°
2026-05-06 16:07 40.83581 3.59395 34595 ft 408 kts 207°
2026-05-06 16:07 40.80979 3.58066 34236 ft 407 kts 207°
2026-05-06 16:07 40.78341 3.56721 33878 ft 406 kts 207°
2026-05-06 16:07 40.75703 3.55372 33474 ft 406 kts 207°
2026-05-06 16:08 40.73072 3.54026 32958 ft 407 kts 207°
2026-05-06 16:08 40.70423 3.52672 32428 ft 408 kts 207°
2026-05-06 16:08 40.67775 3.51320 31908 ft 410 kts 206°
2026-05-06 16:08 40.65110 3.49961 31396 ft 412 kts 206°
2026-05-06 16:09 40.62426 3.48596 30888 ft 414 kts 206°
2026-05-06 16:09 40.59740 3.47234 30305 ft 415 kts 206°
2026-05-06 16:09 40.57030 3.45863 29646 ft 417 kts 206°
2026-05-06 16:09 40.54316 3.44490 28945 ft 420 kts 206°
2026-05-06 16:10 40.51579 3.43106 28261 ft 423 kts 206°
2026-05-06 16:10 40.48817 3.41711 27588 ft 426 kts 206°
2026-05-06 16:10 40.46012 3.40417 26939 ft 432 kts 200°
2026-05-06 16:10 40.43039 3.39631 26300 ft 441 kts 192°
2026-05-06 16:11 40.39944 3.39458 25647 ft 450 kts 183°
2026-05-06 16:11 40.36812 3.39649 25036 ft 449 kts 182°
2026-05-06 16:11 40.33701 3.39842 24443 ft 446 kts 182°
2026-05-06 16:11 40.30609 3.40026 23862 ft 443 kts 183°
2026-05-06 16:12 40.27538 3.40201 23247 ft 440 kts 182°
2026-05-06 16:12 40.24494 3.40371 22576 ft 437 kts 182°
2026-05-06 16:12 40.21468 3.40538 21902 ft 433 kts 182°
2026-05-06 16:12 40.18468 3.40705 21230 ft 429 kts 182°
2026-05-06 16:13 40.15502 3.40873 20594 ft 422 kts 182°
2026-05-06 16:13 40.12589 3.41039 19975 ft 416 kts 182°
2026-05-06 16:13 40.09717 3.41203 19367 ft 411 kts 182°
2026-05-06 16:13 40.06877 3.41360 18772 ft 407 kts 182°
2026-05-06 16:14 40.04060 3.41515 18178 ft 404 kts 182°
2026-05-06 16:14 40.01262 3.41670 17515 ft 401 kts 182°
2026-05-06 16:14 39.98486 3.41826 16857 ft 398 kts 182°
2026-05-06 16:14 39.95732 3.41980 16207 ft 394 kts 181°
2026-05-06 16:15 39.93001 3.42131 15573 ft 391 kts 181°
2026-05-06 16:15 39.90291 3.42283 14955 ft 388 kts 181°
2026-05-06 16:15 39.87602 3.42436 14355 ft 385 kts 181°
2026-05-06 16:15 39.84940 3.42553 13755 ft 381 kts 185°
2026-05-06 16:16 39.82367 3.41994 13090 ft 372 kts 201°
2026-05-06 16:16 39.80111 3.40530 12489 ft 364 kts 217°
2026-05-06 16:16 39.78308 3.38299 11976 ft 355 kts 233°
2026-05-06 16:16 39.76876 3.35730 11570 ft 347 kts 235°
2026-05-06 16:17 39.75507 3.33242 11256 ft 330 kts 235°
2026-05-06 16:17 39.74190 3.30852 11000 ft 321 kts 235°
2026-05-06 16:17 39.72909 3.28534 10617 ft 301 kts 235°
2026-05-06 16:17 39.71737 3.26417 10264 ft 284 kts 235°
2026-05-06 16:18 39.70585 3.24335 9914 ft 283 kts 235°
2026-05-06 16:18 39.69440 3.22265 9526 ft 281 kts 235°
2026-05-06 16:18 39.68303 3.20214 9131 ft 279 kts 235°
2026-05-06 16:18 39.67168 3.18168 8741 ft 278 kts 235°
2026-05-06 16:19 39.66043 3.16139 8356 ft 277 kts 235°
2026-05-06 16:19 39.64919 3.14114 7984 ft 276 kts 235°
2026-05-06 16:19 39.63800 3.12099 7598 ft 275 kts 234°
2026-05-06 16:19 39.62686 3.10093 7220 ft 273 kts 234°
2026-05-06 16:20 39.61576 3.08098 6852 ft 272 kts 235°
2026-05-06 16:20 39.60470 3.06112 6575 ft 271 kts 234°
2026-05-06 16:20 39.59366 3.04130 6335 ft 270 kts 235°
2026-05-06 16:20 39.58268 3.02165 6079 ft 268 kts 235°
2026-05-06 16:21 39.57177 3.00211 5820 ft 267 kts 235°
2026-05-06 16:21 39.56090 2.98265 5566 ft 266 kts 235°
2026-05-06 16:21 39.55006 2.96324 5313 ft 265 kts 235°
2026-05-06 16:21 39.53926 2.94393 5055 ft 265 kts 234°
2026-05-06 16:22 39.52836 2.92448 4812 ft 268 kts 234°
2026-05-06 16:22 39.51738 2.90490 4556 ft 269 kts 234°
2026-05-06 16:22 39.50641 2.88532 4307 ft 269 kts 234°
2026-05-06 16:22 39.49546 2.86575 4050 ft 268 kts 234°
2026-05-06 16:23 39.48453 2.84619 3795 ft 268 kts 234°
2026-05-06 16:23 39.47376 2.82695 3547 ft 267 kts 234°
2026-05-06 16:23 39.46286 2.80755 3307 ft 267 kts 233°
2026-05-06 16:23 39.45205 2.78837 3079 ft 260 kts 233°
2026-05-06 16:24 39.44165 2.76994 2994 ft 247 kts 233°
2026-05-06 16:24 39.43231 2.75146 3005 ft 245 kts 243°
2026-05-06 16:24 39.42476 2.73205 3006 ft 238 kts 243°
2026-05-06 16:24 39.41731 2.71303 3007 ft 236 kts 243°
2026-05-06 16:25 39.40988 2.69415 3006 ft 236 kts 243°
2026-05-06 16:25 39.40245 2.67529 3006 ft 235 kts 243°
2026-05-06 16:25 39.39504 2.65645 3007 ft 235 kts 243°
2026-05-06 16:25 39.38773 2.63760 3005 ft 234 kts 246°
2026-05-06 16:26 39.38387 2.61726 3006 ft 234 kts 267°
2026-05-06 16:26 39.38553 2.59642 3006 ft 234 kts 286°
2026-05-06 16:26 39.39222 2.57740 3005 ft 234 kts 305°
2026-05-06 16:26 39.40247 2.56112 3006 ft 234 kts 313°
2026-05-06 16:27 39.41427 2.54672 3004 ft 233 kts 327°
2026-05-06 16:27 39.42893 2.53821 3005 ft 232 kts 348°
2026-05-06 16:27 39.44488 2.53690 3004 ft 229 kts
2026-05-06 16:27 39.45952 2.54249 2959 ft 214 kts 28°
2026-05-06 16:28 39.47119 2.55336 2806 ft 201 kts 46°
2026-05-06 16:28 39.47916 2.56755 2574 ft 191 kts 59°
2026-05-06 16:28 39.48604 2.58201 2328 ft 187 kts 59°
2026-05-06 16:28 39.49283 2.59628 2074 ft 185 kts 59°
2026-05-06 16:29 39.49956 2.61043 1829 ft 185 kts 59°
2026-05-06 16:29 39.50629 2.62460 1583 ft 185 kts 59°
2026-05-06 16:29 39.51290 2.63851 1334 ft 175 kts 59°
2026-05-06 16:29 39.51881 2.65094 1116 ft 155 kts 59°
2026-05-06 16:30 39.52430 2.66252 915 ft 145 kts 59°
2026-05-06 16:30 39.52776 2.66979 784 ft 141 kts 59°
2026-05-06 16:30 39.53446 2.68364 550 ft 134 kts 58°
2026-05-06 16:30 39.53934 2.69393 372 ft 134 kts 59°
2026-05-06 16:31 39.54413 2.70427 206 ft 134 kts 60°
2026-05-06 16:31 39.54901 2.71462 40 ft 130 kts 57°
2026-05-06 16:31 39.55300 2.72303 38 ft 83 kts 59°
2026-05-06 16:31 39.55476 2.72705 38 ft 37 kts 74°
2026-05-06 16:32 39.55498 2.72986 38 ft 16 kts 88°
2026-05-06 16:32 39.55499 2.73078 38 ft 8 kts 90°
2026-05-06 16:32 39.55469 2.73092 38 ft 7 kts 214°
2026-05-06 16:32 39.55437 2.73038 38 ft 7 kts 234°
2026-05-06 16:33 39.55430 2.73025 38 ft 0 kts 236°
2026-05-06 16:33 39.55418 2.73004 38 ft 8 kts 233°
2026-05-06 16:33 39.55408 2.72993 38 ft 3 kts 220°
2026-05-06 16:34 39.55315 2.73019 38 ft 4 kts 147°
2026-05-06 16:34 39.55280 2.73069 38 ft 14 kts 112°
2026-05-06 16:34 39.55302 2.73142 38 ft 9 kts 62°
2026-05-06 16:34 39.55359 2.73268 38 ft 19 kts 59°
2026-05-06 16:35 39.55418 2.73392 36 ft 12 kts 58°
2026-05-06 16:35 39.55401 2.73454 38 ft 10 kts 140°
2026-05-06 16:35 39.55327 2.73518 38 ft 13 kts 147°
2026-05-06 16:35 39.55263 2.73568 38 ft 9 kts 149°
2026-05-06 16:36 39.55208 2.73611 36 ft 10 kts 149°
2026-05-06 16:36 39.55181 2.73695 38 ft 16 kts 86°
2026-05-06 16:36 39.55095 2.73809 38 ft 19 kts 149°
2026-05-06 16:36 39.54992 2.73888 37 ft 16 kts 148°
2026-05-06 16:37 39.54901 2.73959 38 ft 14 kts 148°
2026-05-06 16:37 39.54860 2.73975 38 ft 3 kts 230°
2026-05-06 16:37 39.54853 2.73912 38 ft 8 kts 268°
2026-05-06 16:37 39.54852 2.73859 38 ft 3 kts 268°
2026-05-06 16:38 39.54851 2.73843 38 ft 0 kts 268°